TimeCST,TemperatureF,Dew PointF,Humidity,Sea Level PressureIn,VisibilityMPH,Wind Direction,Wind SpeedMPH,Gust SpeedMPH,PrecipitationIn,Events,Conditions,WindDirDegrees,DateUTC
12:53 AM,-9.0,-20.0,59,30.43,10.0,West,10.4,-,N/A,,Clear,280,2014-01-28 06:53:00
1:53 AM,-9.0,-20.0,59,30.42,10.0,West,10.4,-,N/A,,Clear,260,2014-01-28 07:53:00
2:53 AM,-9.9,-20.0,61,30.42,10.0,West,11.5,-,N/A,,Clear,260,2014-01-28 08:53:00
3:53 AM,-11.0,-20.0,64,30.42,10.0,West,10.4,-,N/A,,Clear,270,2014-01-28 09:53:00
4:53 AM,-11.0,-20.0,64,30.42,10.0,West,12.7,-,N/A,,Clear,270,2014-01-28 10:53:00
5:53 AM,-11.9,-20.0,67,30.41,10.0,West,11.5,-,N/A,,Clear,270,2014-01-28 11:53:00
6:53 AM,-13.0,-20.0,71,30.43,10.0,WSW,10.4,-,N/A,,Clear,240,2014-01-28 12:53:00
7:53 AM,-11.9,-20.0,67,30.43,10.0,WSW,11.5,-,N/A,,Clear,250,2014-01-28 13:53:00
8:53 AM,-9.9,-18.9,65,30.43,10.0,West,12.7,20.7,N/A,,Clear,270,2014-01-28 14:53:00
9:53 AM,-8.0,-18.0,61,30.43,10.0,West,11.5,-,N/A,,Clear,260,2014-01-28 15:53:00
10:53 AM,-6.0,-17.0,59,30.42,10.0,West,15.0,-,N/A,,Clear,260,2014-01-28 16:53:00
11:53 AM,-2.9,-15.0,56,30.39,10.0,West,15.0,-,N/A,,Clear,270,2014-01-28 17:53:00
12:53 PM,-0.9,-14.1,54,30.36,10.0,West,15.0,27.6,N/A,,Clear,260,2014-01-28 18:53:00
1:53 PM,-0.0,-11.9,57,30.33,10.0,WSW,13.8,23.0,N/A,,Clear,250,2014-01-28 19:53:00
2:53 PM,1.0,-11.9,55,30.31,10.0,WSW,18.4,23.0,N/A,,Clear,250,2014-01-28 20:53:00
3:53 PM,1.0,-11.9,55,30.30,10.0,WSW,15.0,21.9,N/A,,Clear,240,2014-01-28 21:53:00
4:53 PM,-0.0,-11.9,57,30.30,10.0,WSW,12.7,20.7,N/A,,Clear,240,2014-01-28 22:53:00
5:53 PM,-0.0,-11.9,57,30.29,10.0,WSW,11.5,18.4,N/A,,Clear,240,2014-01-28 23:53:00
6:53 PM,-0.9,-11.9,60,30.28,10.0,WSW,11.5,-,N/A,,Clear,240,2014-01-29 00:53:00
7:53 PM,-0.9,-11.9,60,30.27,10.0,WSW,10.4,-,N/A,,Clear,250,2014-01-29 01:53:00
8:53 PM,-0.9,-11.0,62,30.25,10.0,WSW,12.7,-,N/A,,Clear,240,2014-01-29 02:53:00
9:53 PM,-0.0,-9.9,63,30.24,10.0,WSW,10.4,-,N/A,,Clear,240,2014-01-29 03:53:00
10:53 PM,1.0,-9.9,60,30.24,10.0,West,12.7,20.7,N/A,,Clear,260,2014-01-29 04:53:00
11:53 PM,-0.0,-9.9,63,30.23,10.0,West,11.5,-,N/A,,Clear,260,2014-01-29 05:53:00